Weather Roundup
Issued by NWS Chicago, IL

Home | Current Version | Previous Version | Graphics & Text | Print | Product List | Glossary On
Versions: 1 2 3 4 5 6 7 8 9 10 11 12 13 14 15 16 17 18 19 20 21 22 23 24 25 26 27 28 29 30 31 32 33 34 35 36 37 38 39 40 41 42 43 44 45 46 47 48 49 50
000
NZUS59 KLOT 221010
HRRLOT

CHICAGO AREA WEATHER ROUNDUP
NATIONAL WEATHER SERVICE CHICAGO/ROMEOVILLE IL
400 AM CST MON DEC 22 2014

NOTE: "FAIR" INDICATES FEW OR NO CLOUDS BELOW 12,000 FEET WITH NO
SIGNIFICANT WEATHER AND/OR OBSTRUCTIONS TO VISIBILITY.

* THESE STATIONS ARE NOT UNDER NWS QUALITY CONTROL. THEY ALSO MAY NOT
  REPORT WEATHER SUCH AS PRECIPITATION OR FOG.

ILZ005-006-012>014-019>023-221100-
NORTHEAST ILLINOIS

CITY           SKY/WX    TMP DP  RH WIND       PRES   REMARKS
OHARE          CLOUDY    29  25  85 SE8       29.96F WCI  21
MIDWAY         PTCLDY    32  26  78 SE8       29.97F WCI  25
AURORA         CLOUDY    32  27  81 SE7       29.95F HAZE    WCI  26
LANSING*       PTCLDY    30  26  88 SE7       29.97F FOG     WCI  23
JOLIET*        CLOUDY    31  28  87 SE3       29.96S FOG
WAUKEGAN       PTCLDY    32  26  78 SE9       29.95F WCI  24
DUPAGE AIRPORT CLOUDY    31  27  85 SE7       29.94F WCI  24
WHEELING       PTCLDY    29  25  85 SE7       29.98F WCI  22
KANKAKEE*      CLOUDY    31  28  90 E6        29.97F WCI  25
MORRIS*        CLOUDY    33  31  90 S10       29.95S WCI  25
LEWIS AIRPORT* CLOUDY    31  28  89 S9        29.96S FOG     WCI  23
NORTHERLY IS     N/A     31  27  85 SE9         N/A  WCI  23
$$

WIZ051-052-058>065-066-070>072-221100-
SOUTHEAST WISCONSIN

CITY           SKY/WX    TMP DP  RH WIND       PRES   REMARKS
MILWAUKEE      CLOUDY    34  28  79 S10       29.96F WCI  26
KENOSHA*       MOCLDY    31  27  85 SE6       29.95F FOG     WCI  25
RACINE*        MOCLDY    34  28  79 S9        29.98F WCI  27
BURLINGTON     CLOUDY    31  27  86 SE7       29.94F WCI  24
WAUKESHA       CLOUDY    32  28  86 SE9       29.94F WCI  24
WEST BEND      CLOUDY    32  28  86 SE6       29.94F WCI  26
$$

INZ001>003-010>013-019-020-221100-
NORTHWEST INDIANA

CITY           SKY/WX    TMP DP  RH WIND       PRES   REMARKS
GARY*          NOT AVBL
MICHIGAN CITY* NOT AVBL
RENSSELAER*    NOT AVBL
VALPARAISO     MOCLDY    28  25  88 SE6       30.00F WCI  22
$$

LMZ740>746-221100-
SOUTHERN LAKE MICHIGAN

STATION/POSITION TIME  SKY/WX   TEMP WIND        PRES    VSBY
                                AIR  DIR/SP/G
                 (UTC)          (F)  (DEG/KT/KT) (MB)    (MI)
HARRISON CRIB    1000            32  160/ 13/ 15   N/A
BURNHAM HARBOR   1000            31  150/  8/ 10   N/A
CALUMET HARBOR   1000            31  140/  7/ 10 1013.9F
BURNS HARBOR     NOT AVBL
MICHIGAN CITY    NOT AVBL
$$

ABBREVIATIONS USED IN REMARKS
   TC - TEMPERATURE IN CELSIUS
  WCI - WIND CHILL INDEX
   HX - HEAT INDEX
  VSB - VISIBILITY
$$


USA.gov is the U.S. government's official web portal to all federal, state and local government web resources and services.